[ hide orbit diagram ]
For accurate long-term ephemerides, please instead use our Horizons system.This orbit viewer was implemented using two-body methods, and hence should not be used for determining accurate long-term trajectories (over several years or decades) or planetary encounter circumstances.
Orbital Elements at Epoch 2459000.5 (2020-May-31.0) TDB
Reference: JPL 22 (heliocentric ecliptic J2000)
Element | Value | Uncertainty (1-sigma) | Units |
e | .1507558755177117 | 4.3055e-08 | |
a | 3.110207314054696 | 2.8764e-08 | au |
q | 2.64132528738279 | 1.3552e-07 | au |
i | 15.48061200227835 | 5.7738e-06 | deg |
node | 209.0515628692881 | 1.7919e-05 | deg |
peri | 59.2255732025846 | 2.5861e-05 | deg |
M | 220.3195356079385 | 1.9471e-05 | deg |
tp | 2459777.848211802979 (2022-Jul-17.34821180) | 0.00011111 | TDB |
period | 2003.46811178684 5.49 | 2.7792e-05 7.609e-08 | d yr |
n | .1796884102532211 | 2.4927e-09 | deg/d |
Q | 3.579089340726602 | 3.31e-08 | au |
|
| | Orbit Determination Parameters
Additional Information
|
[ hide covariance matrix ]
Orbital Elements at Epoch 2456995.5 (2014-Dec-04.0) TDB
Reference: JPL 22 (heliocentric ecliptic J2000)
Element | Value | Uncertainty (1-sigma) | Units |
e | .1523290002551705 | 4.3359e-08 | |
q | 2.637502728185871 | 1.3709e-07 | au |
tp | 2457769.687479893228 (2017-Jan-16.18747989) | 0.00010423 | TDB |
node | 209.2725906665065 | 1.7964e-05 | deg |
peri | 58.23668754476981 | 2.5585e-05 | deg |
i | 15.45363044148151 | 5.7695e-06 | deg |
|
| | Orbit Determination Parameters
Additional Information
|
Orbit Covariance (6×6)
|
|
e |
q |
tp |
node |
peri |
i |
e |
1.88003267696961E-15 |
-5.850319646359112E-15 |
-7.384777944896056E-13 |
-6.470697794200584E-15 |
-1.067410515473584E-13 |
-1.1428896175555E-16 |
q |
-5.850319646359112E-15 |
1.87944241404391E-14 |
2.55690579314439E-12 |
2.603085447007221E-14 |
3.241722223230554E-13 |
-2.68537578492859E-15 |
tp |
-7.384777944896056E-13 |
2.55690579314439E-12 |
1.086433701377421E-8 |
1.574136462209726E-11 |
1.910903614913637E-9 |
4.184129543149007E-12 |
node |
-6.470697794200584E-15 |
2.603085447007221E-14 |
1.574136462209726E-11 |
3.227126471415841E-10 |
-3.085656530109456E-10 |
-4.865320406813759E-12 |
peri |
-1.067410515473584E-13 |
3.241722223230554E-13 |
1.910903614913637E-9 |
-3.085656530109456E-10 |
6.545673634450635E-10 |
5.350259820725739E-12 |
i |
-1.1428896175555E-16 |
-2.68537578492859E-15 |
4.184129543149007E-12 |
-4.865320406813759E-12 |
5.350259820725739E-12 |
3.328694544093459E-11 |
|
Physical Parameter Table
Parameter |
Symbol |
Value |
Units |
Sigma |
Reference |
Notes |
absolute magnitude |
H |
14.3 |
|
n/a |
MPO426838 |
|
diameter |
diameter |
4.144 |
km |
0.365 |
urn:nasa:pds:neowise_diameters_albedos::2.0[mainbelt] (http://adsabs.harvard.edu/abs/2011ApJ...741...68M) |
|
geometric albedo |
albedo |
0.258 |
|
0.035 |
urn:nasa:pds:neowise_diameters_albedos::2.0[mainbelt] (http://adsabs.harvard.edu/abs/2011ApJ...741...68M) |
|
|
134842 (2000 JJ65) Discovered 2000-May-05 by LINEAR at Socorro |
Reference: 20060907/Numbers.arc | Last Updated: 2006-09-10 |
|
[ show close-approach data ]
|